When you browse on this site, cookies collect data to enhance your experience and personalize the content and advertising you see.
Visit our Privacy Policy to learn more. By continuing to use the site, you agree to this use of cookies and data.
  • en France
  • Liste des pays
  • À 7 jours
  • Température de l'eau
  • Carte satellitaire
  • Carte météo
  • Widgets météo
  • user-avatar
    Se connecter

    Météo par heure à Busia

    Ce jour, 24 Mai, Vendredi

    Heure Température Précipitation Vent Pression Humidité
    00:00 +21°C° 0.1 mm 1 m/s 666 mmHg 89%
    01:00 +21°C° 0.1 mm 1 m/s 666 mmHg 90%
    02:00 +21°C° 0 mm 1 m/s 665 mmHg 90%
    03:00 +20°C° 0 mm 1 m/s 665 mmHg 91%
    04:00 +20°C° 0 mm 1 m/s 665 mmHg 91%
    05:00 +20°C° 0 mm 1 m/s 665 mmHg 92%
    06:00 +21°C° 0 mm 1 m/s 666 mmHg 88%
    07:00 +23°C° 0 mm 1 m/s 667 mmHg 84%
    08:00 +24°C° 0 mm 1 m/s 667 mmHg 78%
    09:00 +25°C° 1.4 mm 1 m/s 667 mmHg 76%
    10:00 +26°C° 1.4 mm 1 m/s 667 mmHg 75%
    11:00 +25°C° 1.4 mm 0 m/s 667 mmHg 73%
    12:00 +27°C° 2.4 mm 1 m/s 667 mmHg 74%
    13:00 +26°C° 2.4 mm 1 m/s 667 mmHg 76%
    14:00 +26°C° 2.4 mm 1 m/s 666 mmHg 77%
    15:00 +25°C° 1.3 mm 1 m/s 666 mmHg 81%
    16:00 +24°C° 1.3 mm 2 m/s 665 mmHg 86%
    17:00 +23°C° 1.3 mm 2 m/s 665 mmHg 90%
    18:00 +21°C° 0.2 mm 2 m/s 665 mmHg 91%
    19:00 +21°C° 0.2 mm 2 m/s 666 mmHg 92%
    20:00 +21°C° 0.2 mm 1 m/s 666 mmHg 93%
    21:00 +21°C° 0.9 mm 1 m/s 666 mmHg 94%
    22:00 +21°C° 0.9 mm 1 m/s 666 mmHg 94%
    23:00 +21°C° 0.9 mm 1 m/s 667 mmHg 95%

    Demain, 25 Mai, Samedi

    Heure Température Précipitation Vent Pression Humidité
    00:00 +20°C° 0.8 mm 1 m/s 666 mmHg 95%
    01:00 +20°C° 0.8 mm 1 m/s 666 mmHg 95%
    02:00 +20°C° 0.8 mm 1 m/s 666 mmHg 95%
    03:00 +20°C° 0.1 mm 1 m/s 665 mmHg 95%
    04:00 +18°C° 0.1 mm 0 m/s 665 mmHg 95%
    05:00 +17°C° 0.1 mm 0 m/s 665 mmHg 94%
    06:00 +21°C° 0 mm 1 m/s 666 mmHg 91%
    07:00 +22°C° 0 mm 1 m/s 666 mmHg 87%
    08:00 +23°C° 0 mm 1 m/s 667 mmHg 84%
    09:00 +25°C° 0 mm 1 m/s 667 mmHg 77%
    10:00 +27°C° 0 mm 1 m/s 667 mmHg 70%
    11:00 +29°C° 0 mm 1 m/s 668 mmHg 63%
    12:00 +29°C° 0.2 mm 1 m/s 667 mmHg 63%
    13:00 +29°C° 0.2 mm 2 m/s 666 mmHg 64%
    14:00 +29°C° 0.2 mm 2 m/s 666 mmHg 64%
    15:00 +28°C° 1.7 mm 2 m/s 665 mmHg 71%
    16:00 +26°C° 1.7 mm 2 m/s 665 mmHg 79%
    17:00 +25°C° 1.7 mm 1 m/s 664 mmHg 86%
    18:00 +24°C° 0.8 mm 1 m/s 665 mmHg 86%
    19:00 +23°C° 0.8 mm 1 m/s 665 mmHg 86%
    20:00 +22°C° 0.8 mm 1 m/s 666 mmHg 87%
    21:00 +22°C° 0.2 mm 1 m/s 666 mmHg 87%
    22:00 +20°C° 0.2 mm 0 m/s 666 mmHg 87%
    23:00 +20°C° 0.2 mm 0 m/s 666 mmHg 88%

    Après-demain, 26 Mai, Dimanche

    Heure Température Précipitation Vent Pression Humidité
    00:00 +21°C° 0 mm 1 m/s 666 mmHg 89%
    01:00 +21°C° 0 mm 1 m/s 665 mmHg 89%
    02:00 +21°C° 0 mm 1 m/s 665 mmHg 90%
    03:00 +20°C° 0 mm 1 m/s 665 mmHg 91%
    04:00 +20°C° 0 mm 1 m/s 664 mmHg 91%
    05:00 +20°C° 0 mm 1 m/s 664 mmHg 91%
    06:00 +21°C° 0 mm 1 m/s 665 mmHg 87%
    07:00 +22°C° 0 mm 1 m/s 666 mmHg 83%
    08:00 +24°C° 0 mm 1 m/s 666 mmHg 78%
    09:00 +25°C° 0 mm 1 m/s 667 mmHg 72%
    10:00 +27°C° 0 mm 1 m/s 667 mmHg 67%
    11:00 +27°C° 0 mm 0 m/s 667 mmHg 61%
    12:00 +29°C° 0.6 mm 1 m/s 666 mmHg 63%
    13:00 +29°C° 0.6 mm 2 m/s 666 mmHg 65%
    14:00 +28°C° 0.6 mm 2 m/s 665 mmHg 66%
    15:00 +27°C° 1.7 mm 2 m/s 664 mmHg 73%
    16:00 +26°C° 1.7 mm 2 m/s 664 mmHg 80%
    17:00 +24°C° 1.7 mm 1 m/s 664 mmHg 87%
    18:00 +24°C° 0.2 mm 1 m/s 664 mmHg 87%
    19:00 +23°C° 0.2 mm 1 m/s 665 mmHg 88%
    20:00 +22°C° 0.2 mm 1 m/s 665 mmHg 89%
    21:00 +22°C° 0.3 mm 1 m/s 665 mmHg 90%
    22:00 +22°C° 0.3 mm 1 m/s 665 mmHg 90%
    23:00 +20°C° 0.3 mm 0 m/s 665 mmHg 91%

    27 Mai, Lundi

    Heure Température Précipitation Vent Pression Humidité
    00:00 +21°C° 0.1 mm 1 m/s 665 mmHg 91%
    01:00 +21°C° 0.1 mm 1 m/s 664 mmHg 91%
    02:00 +21°C° 0.1 mm 1 m/s 664 mmHg 91%
    03:00 +21°C° 0 mm 1 m/s 664 mmHg 91%
    04:00 +20°C° 0 mm 1 m/s 664 mmHg 91%
    05:00 +20°C° 0 mm 1 m/s 664 mmHg 91%
    06:00 +21°C° 0 mm 1 m/s 665 mmHg 88%
    07:00 +22°C° 0 mm 1 m/s 666 mmHg 85%
    08:00 +24°C° 0 mm 1 m/s 666 mmHg 82%
    09:00 +25°C° 1.3 mm 1 m/s 666 mmHg 78%
    10:00 +26°C° 1.3 mm 1 m/s 666 mmHg 75%
    11:00 +25°C° 1.3 mm 0 m/s 666 mmHg 71%
    12:00 +27°C° 2.3 mm 1 m/s 665 mmHg 73%
    13:00 +27°C° 2.3 mm 2 m/s 665 mmHg 74%
    14:00 +27°C° 2.3 mm 2 m/s 664 mmHg 76%
    15:00 +26°C° 1.3 mm 2 m/s 664 mmHg 79%
    16:00 +26°C° 1.3 mm 1 m/s 664 mmHg 82%
    17:00 +25°C° 1.3 mm 1 m/s 664 mmHg 85%
    18:00 +24°C° 0.2 mm 1 m/s 664 mmHg 86%
    19:00 +23°C° 0.2 mm 1 m/s 665 mmHg 87%
    20:00 +22°C° 0.2 mm 1 m/s 665 mmHg 88%
    21:00 +22°C° 0.1 mm 1 m/s 665 mmHg 88%
    22:00 +22°C° 0.1 mm 1 m/s 665 mmHg 89%
    23:00 +21°C° 0.1 mm 1 m/s 665 mmHg 89%

    28 Mai, Mardi

    Heure Température Précipitation Vent Pression Humidité
    00:00 +21°C° 0 mm 1 m/s 665 mmHg 90%
    01:00 +21°C° 0 mm 1 m/s 664 mmHg 90%
    02:00 +20°C° 0 mm 1 m/s 663 mmHg 91%
    03:00 +20°C° 0 mm 1 m/s 664 mmHg 91%
    04:00 +20°C° 0 mm 1 m/s 664 mmHg 91%
    05:00 +20°C° 0 mm 1 m/s 664 mmHg 90%
    06:00 +21°C° 0 mm 1 m/s 665 mmHg 86%
    07:00 +23°C° 0 mm 1 m/s 666 mmHg 81%
    08:00 +24°C° 0 mm 1 m/s 667 mmHg 76%
    09:00 +25°C° 1.1 mm 1 m/s 666 mmHg 74%
    10:00 +26°C° 1.1 mm 1 m/s 666 mmHg 72%
    11:00 +27°C° 1.1 mm 1 m/s 666 mmHg 70%
    12:00 +27°C° 1.5 mm 1 m/s 665 mmHg 71%
    13:00 +27°C° 1.5 mm 2 m/s 665 mmHg 72%
    14:00 +28°C° 1.5 mm 2 m/s 664 mmHg 72%
    15:00 +27°C° 1.1 mm 2 m/s 664 mmHg 77%
    16:00 +26°C° 1.1 mm 2 m/s 664 mmHg 81%
    17:00 +25°C° 1.1 mm 2 m/s 664 mmHg 86%
    18:00 +24°C° 0.2 mm 1 m/s 664 mmHg 86%
    19:00 +23°C° 0.2 mm 1 m/s 665 mmHg 86%
    20:00 +20°C° 0.2 mm 0 m/s 665 mmHg 87%
    21:00 +20°C° 0.1 mm 0 m/s 665 mmHg 87%
    22:00 +19°C° 0.1 mm 0 m/s 665 mmHg 88%
    23:00 +19°C° 0.1 mm 0 m/s 665 mmHg 88%

    29 Mai, Mercredi

    Heure Température Précipitation Vent Pression Humidité
    00:00 +21°C° 0.1 mm 1 m/s 665 mmHg 89%
    01:00 +20°C° 0.1 mm 1 m/s 664 mmHg 90%
    02:00 +20°C° 0.1 mm 1 m/s 664 mmHg 91%
    03:00 +20°C° 0 mm 1 m/s 664 mmHg 90%
    04:00 +20°C° 0 mm 1 m/s 664 mmHg 90%
    05:00 +19°C° 0 mm 1 m/s 664 mmHg 90%
    06:00 +21°C° 0 mm 1 m/s 665 mmHg 85%
    07:00 +22°C° 0 mm 1 m/s 666 mmHg 80%
    08:00 +24°C° 0 mm 1 m/s 666 mmHg 76%
    09:00 +25°C° 0.3 mm 1 m/s 666 mmHg 73%
    10:00 +26°C° 0.3 mm 1 m/s 666 mmHg 70%
    11:00 +28°C° 0.3 mm 1 m/s 666 mmHg 66%
    12:00 +28°C° 0.6 mm 1 m/s 666 mmHg 66%
    13:00 +28°C° 0.6 mm 2 m/s 665 mmHg 65%
    14:00 +29°C° 0.6 mm 2 m/s 664 mmHg 64%
    15:00 +27°C° 0.8 mm 2 m/s 664 mmHg 71%
    16:00 +26°C° 0.8 mm 2 m/s 664 mmHg 77%
    17:00 +25°C° 0.8 mm 1 m/s 664 mmHg 84%
    18:00 +24°C° 0.9 mm 1 m/s 665 mmHg 85%
    19:00 +23°C° 0.9 mm 1 m/s 665 mmHg 86%
    20:00 +22°C° 0.9 mm 1 m/s 665 mmHg 88%
    21:00 +22°C° 0.2 mm 1 m/s 665 mmHg 87%
    22:00 +20°C° 0.2 mm 0 m/s 665 mmHg 87%
    23:00 +20°C° 0.2 mm 0 m/s 665 mmHg 87%
    Voir plus